Terminal Aerodrome Forecast
Issued by NWS

Home | Current Version | Previous Version | Graphics & Text | Print | Product List | Glossary On
Versions: 1 2 3 4 5 6 7 8 9 10 11 12 13 14 15 16 17 18 19 20 21 22 23 24 25 26 27 28 29 30 31 32 33 34 35 36 37 38 39 40 41 42 43 44 45 46 47 48 49 50
000
FTUS43 KLOT 242336
TAFGYY
TAF
KGYY 242336Z 2500/2524 13008G15KT P6SM OVC060
     FM250100 18011G19KT P6SM SCT040 OVC080
     FM250800 18014G20KT P6SM VCTS BKN040CB OVC080
      TEMPO 2510/2513 TSRA SCT020 OVC040CB
     FM251300 20025G35KT P6SM BKN025 BKN040=

USA.gov is the U.S. government's official web portal to all federal, state and local government web resources and services.